| time (UTC) | temp F | wind direction | speed MPH | gust MPH | rain 1hr in | rain 24hr in | rain mn in | humidity % | barometer mb |
| 20260504205013 | 57 | 213 | 10.0 | 17.0 | 0.00 | 0.00 | 0.00 | 80 | 1009.3 |
| 20260504204541 | 57 | 192 | 9.0 | 21.0 | 0.00 | 0.00 | 0.00 | 80 | 1009.2 |
| 20260504204014 | 57 | 180 | 10.0 | 21.0 | 0.00 | 0.00 | 0.00 | 80 | 1009.3 |
| 20260504203514 | 57 | 190 | 10.0 | 20.0 | 0.00 | 0.00 | 0.00 | 79 | 1009.2 |
| 20260504203033 | 57 | 191 | 10.0 | 22.0 | 0.00 | 0.00 | 0.00 | 79 | 1009.2 |
| 20260504202510 | 57 | 205 | 10.0 | 22.0 | 0.00 | 0.00 | 0.00 | 79 | 1009.3 |
| 20260504202014 | 57 | 194 | 10.0 | 19.0 | 0.00 | 0.00 | 0.00 | 78 | 1009.2 |
| 20260504201530 | 57 | 212 | 10.0 | 24.0 | 0.00 | 0.00 | 0.00 | 78 | 1009.2 |
| 20260504201010 | 57 | 173 | 9.0 | 24.0 | 0.00 | 0.00 | 0.00 | 78 | 1009.5 |
| 20260504200511 | 57 | 178 | 12.0 | 22.0 | 0.00 | 0.00 | 0.00 | 78 | 1009.3 |
| 20260504200028 | 57 | 107 | 10.0 | 22.0 | 0.00 | 0.00 | 0.00 | 77 | 1009.3 |
| 20260504195511 | 58 | 211 | 10.0 | 19.0 | 0.00 | 0.00 | 0.00 | 76 | 1009.3 |
| 20260504195016 | 58 | 190 | 10.0 | 19.0 | 0.00 | 0.00 | 0.00 | 77 | 1009.4 |
| 20260504194528 | 58 | 182 | 9.0 | 24.0 | 0.00 | 0.00 | 0.00 | 77 | 1009.4 |
| 20260504194010 | 58 | 188 | 12.0 | 24.0 | 0.00 | 0.00 | 0.00 | 75 | 1009.4 |
| 20260504193511 | 58 | 179 | 10.0 | 19.0 | 0.00 | 0.00 | 0.00 | 75 | 1009.5 |
| 20260504193031 | 58 | 188 | 10.0 | 19.0 | 0.00 | 0.00 | 0.00 | 75 | 1009.5 |
| 20260504192510 | 58 | 216 | 9.0 | 19.0 | 0.00 | 0.00 | 0.00 | 76 | 1009.6 |
| 20260504192013 | 58 | 162 | 8.0 | 21.0 | 0.00 | 0.00 | 0.00 | 75 | 1009.6 |
| 20260504191529 | 58 | 175 | 10.0 | 22.0 | 0.00 | 0.00 | 0.00 | 75 | 1009.9 |
| 20260504191009 | 58 | 180 | 11.0 | 22.0 | 0.00 | 0.00 | 0.00 | 75 | 1009.8 |
| 20260504190510 | 58 | 175 | 10.0 | 18.0 | 0.00 | 0.00 | 0.00 | 75 | 1009.8 |
| 20260504190030 | 58 | 145 | 9.0 | 19.0 | 0.00 | 0.00 | 0.00 | 75 | 1010.0 |
| 20260504185508 | 58 | 224 | 9.0 | 20.0 | 0.00 | 0.00 | 0.00 | 76 | 1010.1 |
| 20260504185011 | 58 | 184 | 9.0 | 21.0 | 0.00 | 0.00 | 0.00 | 75 | 1010.1 |
| 20260504184530 | 58 | 203 | 10.0 | 21.0 | 0.00 | 0.00 | 0.00 | 74 | 1010.1 |
| 20260504184011 | 59 | 186 | 10.0 | 17.0 | 0.00 | 0.00 | 0.00 | 73 | 1010.1 |
| 20260504183517 | 59 | 195 | 8.0 | 18.0 | 0.00 | 0.00 | 0.00 | 75 | 1010.1 |
| 20260504183030 | 58 | 169 | 10.0 | 18.0 | 0.00 | 0.00 | 0.00 | 75 | 1010.3 |
| 20260504182508 | 58 | 187 | 10.0 | 20.0 | 0.00 | 0.00 | 0.00 | 75 | 1010.5 |
| 20260504182015 | 58 | 182 | 11.0 | 20.0 | 0.00 | 0.00 | 0.00 | 76 | 1010.3 |
| 20260504181533 | 59 | 188 | 10.0 | 19.0 | 0.00 | 0.00 | 0.00 | 74 | 1010.5 |
| 20260504181013 | 59 | 136 | 6.0 | 19.0 | 0.00 | 0.00 | 0.00 | 75 | 1010.4 |
| 20260504180514 | 59 | 177 | 8.0 | 17.0 | 0.00 | 0.00 | 0.00 | 75 | 1010.6 |
| 20260504180030 | 59 | 175 | 8.0 | 18.0 | 0.00 | 0.00 | 0.00 | 75 | 1010.7 |
| 20260504175509 | 59 | 155 | 8.0 | 20.0 | 0.00 | 0.00 | 0.00 | 75 | 1010.7 |
| 20260504175011 | 59 | 192 | 9.0 | 20.0 | 0.00 | 0.00 | 0.00 | 74 | 1010.8 |
| 20260504174530 | 59 | 187 | 7.0 | 16.0 | 0.00 | 0.00 | 0.00 | 73 | 1010.8 |
| 20260504174010 | 59 | 145 | 9.0 | 18.0 | 0.00 | 0.00 | 0.00 | 73 | 1010.9 |
| 20260504173512 | 59 | 161 | 8.0 | 18.0 | 0.00 | 0.00 | 0.00 | 73 | 1010.9 |
| 20260504173028 | 59 | 164 | 8.0 | 17.0 | 0.00 | 0.00 | 0.00 | 73 | 1010.8 |
| 20260504172512 | 60 | 160 | 10.0 | 18.0 | 0.00 | 0.00 | 0.00 | 71 | 1010.9 |
| 20260504172017 | 61 | 182 | 9.0 | 18.0 | 0.00 | 0.00 | 0.00 | 69 | 1010.9 |
| 20260504171528 | 60 | 180 | 9.0 | 16.0 | 0.00 | 0.00 | 0.00 | 72 | 1011.1 |
| 20260504171013 | 59 | 156 | 9.0 | 15.0 | 0.00 | 0.00 | 0.00 | 72 | 1011.0 |
| 20260504170513 | 59 | 194 | 7.0 | 15.0 | 0.00 | 0.00 | 0.00 | 72 | 1011.2 |
| 20260504151013 | 60 | 262 | 4.0 | 15.0 | 0.00 | 0.00 | 0.00 | 69 | 1012.5 |
| 20260504150513 | 61 | 175 | 7.0 | 15.0 | 0.00 | 0.00 | 0.00 | 65 | 1012.5 |
| 20260504141009 | 62 | 280 | 7.0 | 16.0 | 0.00 | 0.00 | 0.00 | 45 | 1013.0 |
| 20260504140508 | 62 | 265 | 8.0 | 16.0 | 0.00 | 0.00 | 0.00 | 47 | 1012.8 |
| 20260504130512 | 59 | 241 | 8.0 | 15.0 | 0.00 | 0.00 | 0.00 | 54 | 1013.4 |
| 20260504110510 | 50 | 317 | 8.0 | 14.0 | 0.00 | 0.00 | 0.00 | 73 | 1014.1 |
| 20260504100512 | 50 | 263 | 7.0 | 17.0 | 0.00 | 0.00 | 0.00 | 69 | 1013.9 |
| 20260504081531 | 50 | 337 | 6.0 | 13.0 | 0.00 | 0.00 | 0.00 | 61 | 1013.7 |
| 20260504081010 | 50 | 278 | 8.0 | 13.0 | 0.00 | 0.00 | 0.00 | 61 | 1013.5 |
| 20260504080511 | 49 | 279 | 6.0 | 13.0 | 0.00 | 0.00 | 0.00 | 62 | 1013.6 |
| 20260504050512 | 50 | 275 | 5.0 | 11.0 | 0.00 | 0.00 | 0.00 | 56 | 1012.9 |
| 20260504045510 | 50 | 279 | 5.0 | 10.0 | 0.00 | 0.00 | 0.00 | 55 | 1012.9 |
| 20260504045013 | 50 | 325 | 4.0 | 10.0 | 0.00 | 0.00 | 0.00 | 55 | 1012.8 |
| 20260504044538 | 50 | 324 | 4.0 | 9.0 | 0.00 | 0.00 | 0.00 | 56 | 1012.7 |
| 20260504044010 | 51 | 323 | 5.0 | 9.0 | 0.00 | 0.00 | 0.00 | 54 | 1012.7 |
| 20260504043511 | 51 | 291 | 5.0 | 9.0 | 0.00 | 0.00 | 0.00 | 55 | 1012.5 |
| 20260504043029 | 51 | 274 | 4.0 | 9.0 | 0.00 | 0.00 | 0.00 | 54 | 1012.6 |
| 20260504042509 | 51 | 360 | 5.0 | 9.0 | 0.00 | 0.00 | 0.00 | 53 | 1012.6 |
| 20260504042011 | 51 | 311 | 4.0 | 8.0 | 0.00 | 0.00 | 0.00 | 53 | 1012.4 |
| 20260504041531 | 51 | 250 | 3.0 | 10.0 | 0.00 | 0.00 | 0.00 | 54 | 1012.4 |
| 20260504041010 | 51 | 360 | 4.0 | 10.0 | 0.00 | 0.00 | 0.00 | 54 | 1012.6 |
| 20260504040514 | 51 | 309 | 4.0 | 10.0 | 0.00 | 0.00 | 0.00 | 53 | 1012.3 |
| 20260504040038 | 51 | 360 | 4.0 | 11.0 | 0.00 | 0.00 | 0.00 | 54 | 1012.4 |
| 20260504035510 | 51 | 277 | 5.0 | 11.0 | 0.00 | 0.00 | 0.00 | 53 | 1012.3 |
| 20260504035011 | 51 | 360 | 4.0 | 9.0 | 0.00 | 0.00 | 0.00 | 53 | 1012.4 |
| 20260504034531 | 51 | 292 | 3.0 | 9.0 | 0.00 | 0.00 | 0.00 | 53 | 1012.3 |
| 20260504034010 | 51 | 219 | 4.0 | 8.0 | 0.00 | 0.00 | 0.00 | 52 | 1012.4 |
| 20260504033510 | 52 | 243 | 3.0 | 11.0 | 0.00 | 0.00 | 0.00 | 53 | 1012.2 |
| 20260504033032 | 52 | 274 | 5.0 | 11.0 | 0.00 | 0.00 | 0.00 | 52 | 1012.1 |
| 20260504032510 | 52 | 288 | 4.0 | 10.0 | 0.00 | 0.00 | 0.00 | 51 | 1012.2 |
| 20260504032016 | 52 | 233 | 4.0 | 10.0 | 0.00 | 0.00 | 0.00 | 51 | 1012.2 |
| 20260504031532 | 52 | 279 | 5.0 | 11.0 | 0.00 | 0.00 | 0.00 | 51 | 1012.2 |
| 20260504031010 | 52 | 307 | 4.0 | 11.0 | 0.00 | 0.00 | 0.00 | 51 | 1012.2 |
| 20260504030511 | 52 | 236 | 6.0 | 11.0 | 0.00 | 0.00 | 0.00 | 51 | 1012.2 |
| 20260504030029 | 53 | 257 | 6.0 | 11.0 | 0.00 | 0.00 | 0.00 | 50 | 1012.2 |
| 20260504025507 | 53 | 277 | 6.0 | 11.0 | 0.00 | 0.00 | 0.00 | 50 | 1012.2 |
| 20260504025013 | 53 | 304 | 5.0 | 11.0 | 0.00 | 0.00 | 0.00 | 52 | 1012.2 |
| 20260504024530 | 53 | 270 | 5.0 | 11.0 | 0.00 | 0.00 | 0.00 | 52 | 1012.1 |
| 20260504024012 | 53 | 287 | 5.0 | 11.0 | 0.00 | 0.00 | 0.00 | 52 | 1012.1 |
| 20260504023511 | 53 | 284 | 5.0 | 11.0 | 0.00 | 0.00 | 0.00 | 52 | 1012.2 |
| 20260504023030 | 53 | 306 | 4.0 | 10.0 | 0.00 | 0.00 | 0.00 | 50 | 1012.2 |
| 20260504022514 | 53 | 241 | 5.0 | 10.0 | 0.00 | 0.00 | 0.00 | 50 | 1012.1 |
| 20260504022014 | 53 | 281 | 4.0 | 11.0 | 0.00 | 0.00 | 0.00 | 51 | 1012.2 |
| 20260504021530 | 53 | 259 | 4.0 | 11.0 | 0.00 | 0.00 | 0.00 | 51 | 1012.1 |
| 20260504021009 | 53 | 260 | 5.0 | 11.0 | 0.00 | 0.00 | 0.00 | 49 | 1012.2 |
| 20260504020511 | 54 | 313 | 4.0 | 12.0 | 0.00 | 0.00 | 0.00 | 48 | 1012.1 |
| 20260504020030 | 54 | 248 | 6.0 | 12.0 | 0.00 | 0.00 | 0.00 | 48 | 1012.2 |
| 20260504015511 | 54 | 277 | 5.0 | 10.0 | 0.00 | 0.00 | 0.00 | 48 | 1012.2 |
| 20260504015013 | 54 | 256 | 5.0 | 10.0 | 0.00 | 0.00 | 0.00 | 48 | 1012.1 |
| 20260504014530 | 54 | 261 | 5.0 | 10.0 | 0.00 | 0.00 | 0.00 | 48 | 1012.1 |
| 20260504014011 | 54 | 304 | 4.0 | 10.0 | 0.00 | 0.00 | 0.00 | 48 | 1012.0 |
| 20260504013511 | 54 | 254 | 4.0 | 9.0 | 0.00 | 0.00 | 0.00 | 49 | 1012.0 |
| 20260504013040 | 54 | 273 | 4.0 | 9.0 | 0.00 | 0.00 | 0.00 | 51 | 1011.9 |
| 20260504012516 | 54 | 225 | 3.0 | 9.0 | 0.00 | 0.00 | 0.00 | 52 | 1011.8 |
| 20260504012007 | 55 | 281 | 3.0 | 9.0 | 0.00 | 0.00 | 0.00 | 51 | 1011.8 |
| 20260504011530 | 55 | 290 | 4.0 | 9.0 | 0.00 | 0.00 | 0.00 | 51 | 1011.9 |
| 20260504011012 | 55 | 269 | 4.0 | 8.0 | 0.00 | 0.00 | 0.00 | 52 | 1011.8 |
| 20260504010516 | 55 | 273 | 3.0 | 8.0 | 0.00 | 0.00 | 0.00 | 51 | 1011.6 |
| 20260504010030 | 55 | 261 | 3.0 | 8.0 | 0.00 | 0.00 | 0.00 | 50 | 1011.5 |
| 20260504005509 | 55 | 274 | 2.0 | 7.0 | 0.00 | 0.00 | 0.00 | 51 | 1011.5 |
| 20260504005011 | 55 | 286 | 3.0 | 8.0 | 0.00 | 0.00 | 0.00 | 49 | 1011.4 |
| 20260504004528 | 55 | 271 | 4.0 | 8.0 | 0.00 | 0.00 | 0.00 | 49 | 1011.4 |
| 20260504004008 | 55 | 303 | 3.0 | 8.0 | 0.00 | 0.00 | 0.00 | 49 | 1011.3 |
| 20260504003515 | 55 | 253 | 3.0 | 7.0 | 0.00 | 0.00 | 0.00 | 47 | 1011.4 |
| 20260504003033 | 56 | 252 | 3.0 | 8.0 | 0.00 | 0.00 | 0.00 | 47 | 1011.2 |
| 20260504002509 | 56 | 283 | 4.0 | 8.0 | 0.00 | 0.00 | 0.00 | 43 | 1011.1 |
| 20260504002013 | 56 | 281 | 3.0 | 7.0 | 0.00 | 0.00 | 0.00 | 45 | 1011.1 |
| 20260504001529 | 56 | 281 | 2.0 | 6.0 | 0.00 | 0.00 | 0.00 | 45 | 1011.0 |
| 20260504001011 | 56 | 278 | 2.0 | 6.0 | 0.00 | 0.00 | 0.00 | 45 | 1011.0 |
| 20260504000513 | 56 | 272 | 2.0 | 6.0 | 0.00 | 0.00 | 0.00 | 45 | 1011.0 |
| 20260504000031 | 57 | 257 | 2.0 | 7.0 | 0.00 | 0.00 | 0.00 | 44 | 1010.8 |
| 20260503235510 | 57 | 269 | 3.0 | 8.0 | 0.00 | 0.00 | 0.00 | 42 | 1010.8 |
| 20260503235010 | 57 | 294 | 3.0 | 8.0 | 0.00 | 0.00 | 0.00 | 40 | 1010.9 |
| 20260503234531 | 57 | 281 | 2.0 | 12.0 | 0.00 | 0.00 | 0.00 | 41 | 1010.7 |
| 20260503234007 | 58 | 325 | 2.0 | 12.0 | 0.00 | 0.00 | 0.00 | 41 | 1010.7 |
| 20260503233511 | 58 | 321 | 6.0 | 12.0 | 0.00 | 0.00 | 0.00 | 43 | 1010.6 |
| 20260503233035 | 58 | 319 | 5.0 | 12.0 | 0.00 | 0.00 | 0.00 | 40 | 1010.6 |
| 20260503232509 | 58 | 277 | 4.0 | 12.0 | 0.00 | 0.00 | 0.00 | 39 | 1010.6 |
| 20260503232010 | 58 | 313 | 5.0 | 13.0 | 0.00 | 0.00 | 0.00 | 39 | 1010.7 |
| 20260503231528 | 58 | 303 | 5.0 | 15.0 | 0.00 | 0.00 | 0.00 | 38 | 1010.6 |
| 20260503231011 | 58 | 240 | 8.0 | 15.0 | 0.00 | 0.00 | 0.00 | 37 | 1010.6 |
| 20260503230510 | 58 | 333 | 8.0 | 15.0 | 0.00 | 0.00 | 0.00 | 39 | 1010.5 |
| 20260503230029 | 59 | 308 | 8.0 | 15.0 | 0.00 | 0.00 | 0.00 | 43 | 1010.4 |
| 20260503225513 | 59 | 327 | 9.0 | 18.0 | 0.00 | 0.00 | 0.00 | 36 | 1010.3 |
| 20260503225011 | 59 | 304 | 8.0 | 21.0 | 0.00 | 0.00 | 0.00 | 36 | 1010.3 |
| 20260503224531 | 59 | 303 | 11.0 | 21.0 | 0.00 | 0.00 | 0.00 | 41 | 1010.3 |
| 20260503224016 | 59 | 314 | 4.0 | 14.0 | 0.00 | 0.00 | 0.00 | 38 | 1010.3 |
| 20260503223512 | 59 | 279 | 6.0 | 14.0 | 0.00 | 0.00 | 0.00 | 38 | 1010.2 |
| 20260503223032 | 59 | 281 | 4.0 | 14.0 | 0.00 | 0.00 | 0.00 | 35 | 1010.2 |
| 20260503222509 | 59 | 319 | 7.0 | 14.0 | 0.00 | 0.00 | 0.00 | 38 | 1010.2 |
| 20260503222011 | 59 | 262 | 6.0 | 14.0 | 0.00 | 0.00 | 0.00 | 35 | 1010.1 |
| 20260503221531 | 60 | 348 | 4.0 | 11.0 | 0.00 | 0.00 | 0.00 | 36 | 1010.2 |
| 20260503221010 | 59 | 324 | 5.0 | 16.0 | 0.00 | 0.00 | 0.00 | 39 | 1010.2 |
| 20260503220510 | 59 | 352 | 3.0 | 18.0 | 0.00 | 0.00 | 0.00 | 37 | 1010.2 |
| 20260503220028 | 59 | 306 | 12.0 | 18.0 | 0.00 | 0.00 | 0.00 | 39 | 1010.2 |
| 20260503215511 | 59 | 306 | 6.0 | 18.0 | 0.00 | 0.00 | 0.00 | 39 | 1010.3 |
| 20260503215016 | 59 | 337 | 8.0 | 24.0 | 0.00 | 0.00 | 0.00 | 39 | 1010.1 |
| 20260503214531 | 59 | 325 | 9.0 | 24.0 | 0.00 | 0.00 | 0.00 | 42 | 1010.1 |
| 20260503214010 | 59 | 315 | 14.0 | 24.0 | 0.00 | 0.00 | 0.00 | 40 | 1010.0 |
| 20260503213515 | 59 | 300 | 7.0 | 20.0 | 0.00 | 0.00 | 0.00 | 38 | 1010.0 |
| 20260503213039 | 59 | 296 | 5.0 | 20.0 | 0.00 | 0.00 | 0.00 | 38 | 1010.0 |
| 20260503212510 | 59 | 328 | 10.0 | 20.0 | 0.00 | 0.00 | 0.00 | 39 | 1010.1 |
| 20260503212012 | 59 | 308 | 5.0 | 17.0 | 0.00 | 0.00 | 0.00 | 41 | 1010.0 |
| 20260503211535 | 59 | 231 | 7.0 | 22.0 | 0.00 | 0.00 | 0.00 | 42 | 1009.9 |
| 20260503211010 | 58 | 321 | 12.0 | 22.0 | 0.00 | 0.00 | 0.00 | 43 | 1010.0 |
| 20260503210511 | 58 | 294 | 13.0 | 22.0 | 0.00 | 0.00 | 0.00 | 41 | 1010.0 |
| 20260503210034 | 59 | 232 | 5.0 | 23.0 | 0.00 | 0.00 | 0.00 | 37 | 1010.0 |
| 20260503205508 | 59 | 270 | 10.0 | 23.0 | 0.00 | 0.00 | 0.00 | 40 | 1010.0 |